{"data":{"norad_id":52456,"epoch":"2026-05-25T04:55:50.600928Z","epoch_age_seconds":60540,"freshness":"FRESH","line1":"1 52456U 22049F   26145.20544677 -.00002081  00000+0 -11268-3 0  9995","line2":"2 52456  53.2125  85.6279 0001507  94.0403 266.0761 15.08845687223661","mean_motion":15.08845687,"eccentricity":0.0001507,"inclination_deg":53.2125,"raan_deg":85.6279,"arg_perigee_deg":94.0403,"mean_anomaly_deg":266.0761,"bstar":-0.00011268,"rev_number":22366,"period_min":95.437194963463,"perigee_km":538.6834841798,"apogee_km":540.76852808985,"semimajor_km":6917.8630061348,"source":"CELESTRAK","updated_at":"2026-05-25T13:38:17.124984Z"}}